#timestamp,LO_Frequency,Hit,StdDev 
1691190015.8,286047003.3,N
1691190035.6,286047003.4,N
1691190055.4,286047009.2,Y
1691190075.3,286046997.3,P
1691190095.1,286046996.6,N
1691190115.9,286047004.3,N
1691190135.7,286047002.8,N
1691190155.5,286047004.7,N
1691190175.4,286046998.3,N
1691190225.2,286047003.1,E
1691190235.2,286046999.4,N
1691190255.0,286046997.0,P
1691190255.9,286046997.0,N
1691190275.8,286046991.7,Y
1691190295.6,286046998.4,P
1691190315.4,286046998.8,P
1691190335.3,286046999.5,N
1691190355.1,286046991.9,Y
1691190375.8,286047000.7,P
1691190395.7,286047002.2,N
1691190415.5,286046997.2,N
1691190435.4,286046998.0,N
1691190455.2,286046997.3,N
1691190475.0,286046997.3,N
1691190475.9,286046997.3,N
1691190495.8,286046997.9,N
1691190545.6,286046998.4,E
1691190555.6,286046996.7,N
1691190575.4,286046993.5,P
1691190595.2,286046995.2,P
1691190615.1,286046995.9,Y
1691190616.0,286046995.9,P
1691190635.8,286047011.9,P
1691190655.7,286047002.5,N
1691190675.5,286047003.2,N
1691190695.3,286047001.6,N
1691190715.2,286047003.8,N
1691190735.0,286047003.0,N
1691190735.9,286047003.0,N
1691190755.7,286047005.0,N
1691190775.6,286047008.1,N
1691190795.4,286047016.8,Y
1691190815.3,286047009.8,P
1691190835.1,286047012.0,P
1691190836.0,286047012.0,P
1691190855.8,286047004.5,N
1691190875.7,286047012.8,Y
1691190895.5,286047008.7,P
1691190915.4,286047006.6,P
1691190935.2,286047007.0,P
1691190955.0,286047010.6,Y
1691190955.9,286047010.6,P
1691190975.8,286047001.4,N
1691190995.6,286047003.6,N
1691191015.5,286046996.7,N
1691191035.3,286047003.9,N
1691191085.2,286046999.3,E
1691191095.1,286046993.9,N
1691191096.0,286046993.9,P
1691191115.8,286047000.3,P
1691191135.7,286047001.1,N
1691191155.5,286047002.9,N
1691191175.3,286047004.2,N
1691191195.2,286046999.9,N
1691191215.0,286047000.1,N
1691191215.9,286047000.1,N
1691191235.8,286046995.0,N
1691191255.6,286046996.8,N
1691191275.4,286046997.3,N
1691191295.3,286046998.5,N
1691191315.1,286046999.4,N
1691191335.9,286047007.3,N
1691191355.7,286047001.7,N
1691191375.5,286047004.5,N
1691191395.4,286047005.2,N
1691191415.2,286047003.3,N
1691191435.0,286047004.2,N
1691191435.9,286047004.2,N
1691191455.8,286047003.4,N
1691191475.6,286047005.6,N
1691191495.5,286047003.3,N
1691191515.3,286047000.5,N
1691191535.1,286046999.2,N
1691191555.9,286046996.6,N
1691191575.7,286046996.3,N
1691191595.6,286046995.3,N
1691191615.4,286046994.3,N
1691191635.2,286046996.0,N
1691191655.1,286046992.9,N
1691191656.0,286046992.9,N
1691191675.8,286046994.0,N
1691191695.7,286046997.3,N
1691191715.5,286046996.2,N
1691191735.3,286046992.6,N
1691191755.2,286046992.6,N
1691191775.0,286046993.8,N
1691191775.9,286046993.8,N
1691191795.7,286046994.8,N
1691191815.6,286046990.2,N
1691191835.4,286046992.6,N
1691191855.3,286046997.9,N
1691191875.1,286046992.8,N
1691191895.8,286046993.2,N
1691191915.7,286046990.4,N
1691191935.5,286046992.6,N
1691191955.4,286046995.3,N
1691191975.2,286046992.4,N
1691191995.0,286046992.4,N
1691191995.9,286046992.4,N
1691192015.8,286046994.1,N
1691192035.6,286046994.8,N
1691192055.4,286046993.2,N
1691192075.3,286046997.0,N
1691192095.1,286046999.2,N
1691192115.9,286047005.8,N
1691192135.7,286047002.7,N
1691192155.5,286047003.6,N
1691192175.4,286046998.4,N
1691192195.2,286047003.5,N
1691192215.0,286047006.9,N
1691192216.0,286047006.9,N
1691192235.8,286047002.3,N
1691192255.6,286047005.2,N
1691192275.5,286047002.0,N
1691192295.3,286047002.7,N
1691192315.1,286047001.6,N
1691192335.9,286047003.6,N
1691192355.7,286047005.4,N
1691192375.5,286047010.4,N
1691192395.4,286047006.1,N
1691192415.2,286047009.1,N
1691192435.1,286047008.2,N
1691192436.0,286047008.2,N
1691192455.8,286047015.6,N
1691192475.6,286047010.3,N
1691192495.5,286047011.0,N
1691192515.3,286047008.0,N
1691192535.2,286047010.2,N
1691192555.9,286047018.0,Y
1691192575.7,286047013.9,P
1691192595.6,286047010.2,N
1691192615.4,286047008.3,N
1691192635.2,286047015.2,Y
1691192655.1,286047005.7,P
1691192656.0,286047005.7,P
1691192675.8,286047001.6,N
1691192695.7,286047001.5,N
1691192715.5,286046994.9,N
1691192735.3,286047000.3,N
1691192755.2,286046995.3,N
1691192775.0,286046989.9,N
1691192775.9,286046989.9,N
1691192795.8,286046992.6,N
1691192815.6,286046991.0,N
1691192835.4,286046991.6,N
1691192855.3,286046992.8,N
1691192875.1,286046992.4,N
1691192895.9,286046992.5,N
1691192915.7,286046990.5,N
1691192935.5,286046989.0,N
1691192955.4,286046990.6,N
1691192975.2,286046988.8,N
1691192995.0,286046993.2,N
1691192995.9,286046993.2,N
1691193015.8,286046996.3,N
1691193035.6,286046996.2,N
1691193055.5,286046996.0,N
1691193075.3,286046990.9,N
1691193095.1,286046990.6,N
1691193115.9,286046991.7,N
1691193135.7,286046993.0,N
1691193155.5,286046992.8,N
1691193175.4,286046990.9,N
1691193195.2,286046996.5,N
1691193215.1,286046993.6,N
1691193216.0,286046993.6,N
1691193235.8,286046991.5,N
1691193255.6,286046986.3,Y
1691193275.5,286046996.6,P
1691193295.3,286047002.2,N
1691193315.2,286047000.2,N
1691193335.9,286046999.0,N
1691193355.7,286046995.1,N
1691193375.6,286046996.9,N
1691193395.4,286046998.0,N
1691193415.2,286046995.3,N
1691193435.1,286046996.7,N
1691193436.0,286046996.7,N
1691193455.8,286047002.6,N
1691193475.7,286047003.4,N
1691193495.5,286047004.0,N
1691193515.3,286047001.6,N
1691193535.2,286047005.2,N
1691193555.9,286047003.9,N
1691193575.7,286047006.4,N
1691193595.6,286047008.1,N
